| time (UTC) | temp F | wind direction | speed MPH | gust MPH | rain 1hr in | rain 24hr in | rain mn in | humidity % | barometer mb |
| 20260507010108 | 69 | 323 | 6.0 | 17.0 | 0.00 | 0.00 | 0.00 | 20 | 1006.4 |
| 20260507004555 | 71 | 324 | 12.0 | 18.0 | 0.00 | 0.00 | 0.00 | 19 | 1006.6 |
| 20260507003056 | 72 | 352 | 14.0 | 19.0 | 0.00 | 0.00 | 0.00 | 19 | 1006.5 |
| 20260507001555 | 73 | 320 | 11.0 | 25.0 | 0.00 | 0.00 | 0.00 | 19 | 1006.7 |
| 20260507000100 | 72 | 325 | 14.0 | 24.0 | 0.00 | 0.00 | 0.00 | 19 | 1006.7 |
| 20260506234554 | 72 | 350 | 11.0 | 19.0 | 0.00 | 0.00 | 0.00 | 19 | 1006.6 |
| 20260506233105 | 72 | 325 | 8.0 | 18.0 | 0.00 | 0.00 | 0.00 | 19 | 1006.7 |
| 20260506231555 | 72 | 293 | 5.0 | 10.0 | 0.00 | 0.00 | 0.00 | 20 | 1006.8 |
| 20260506230050 | 71 | 280 | 0.0 | 11.0 | 0.00 | 0.00 | 0.00 | 21 | 1007.1 |
| 20260506224558 | 71 | 5 | 3.0 | 12.0 | 0.00 | 0.00 | 0.00 | 20 | 1007.3 |
| 20260506223054 | 70 | 14 | 3.0 | 9.0 | 0.00 | 0.00 | 0.00 | 21 | 1007.5 |
| 20260506221557 | 69 | 236 | 0.0 | 7.0 | 0.00 | 0.00 | 0.00 | 21 | 1007.6 |
| 20260506220052 | 69 | 266 | 6.0 | 12.0 | 0.00 | 0.00 | 0.00 | 20 | 1008.0 |
| 20260506214555 | 68 | 293 | 2.0 | 9.0 | 0.00 | 0.00 | 0.00 | 21 | 1008.4 |
| 20260506213054 | 68 | 287 | 7.0 | 13.0 | 0.00 | 0.00 | 0.00 | 21 | 1008.5 |
| 20260506211608 | 66 | 0 | 1.0 | 10.0 | 0.00 | 0.00 | 0.00 | 22 | 1008.8 |
| 20260506210054 | 66 | 11 | 6.0 | 20.0 | 0.00 | 0.00 | 0.00 | 22 | 1009.1 |
| 20260506204556 | 65 | 302 | 5.0 | 14.0 | 0.00 | 0.00 | 0.00 | 23 | 1009.4 |
| 20260506203054 | 65 | 312 | 6.0 | 13.0 | 0.00 | 0.00 | 0.00 | 22 | 1009.6 |
| 20260506201554 | 63 | 254 | 2.0 | 14.0 | 0.00 | 0.00 | 0.00 | 24 | 1009.8 |
| 20260506200055 | 64 | 250 | 9.0 | 21.0 | 0.00 | 0.00 | 0.00 | 23 | 1010.0 |
| 20260506194555 | 64 | 250 | 10.0 | 18.0 | 0.00 | 0.00 | 0.00 | 23 | 1010.4 |
| 20260506193055 | 61 | 0 | 9.0 | 16.0 | 0.00 | 0.00 | 0.00 | 24 | 1010.5 |
| 20260506191554 | 61 | 209 | 3.0 | 12.0 | 0.00 | 0.00 | 0.00 | 25 | 1010.9 |
| 20260506190055 | 60 | 211 | 9.0 | 26.0 | 0.00 | 0.00 | 0.00 | 24 | 1011.3 |
| 20260506184604 | 59 | 294 | 6.0 | 18.0 | 0.00 | 0.00 | 0.00 | 26 | 1011.5 |
| 20260506183056 | 58 | 257 | 9.0 | 17.0 | 0.00 | 0.00 | 0.00 | 26 | 1011.8 |
| 20260506181556 | 56 | 194 | 5.0 | 18.0 | 0.00 | 0.00 | 0.00 | 26 | 1012.1 |
| 20260506180057 | 55 | 179 | 5.0 | 14.0 | 0.00 | 0.00 | 0.00 | 26 | 1012.3 |
| 20260506174552 | 55 | 221 | 8.0 | 17.0 | 0.00 | 0.00 | 0.00 | 27 | 1012.7 |
| 20260506173104 | 54 | 155 | 5.0 | 16.0 | 0.00 | 0.00 | 0.00 | 29 | 1012.9 |
| 20260506171602 | 52 | 205 | 7.0 | 15.0 | 0.00 | 0.00 | 0.00 | 32 | 1013.2 |
| 20260506170103 | 51 | 183 | 8.0 | 13.0 | 0.00 | 0.00 | 0.00 | 35 | 1013.6 |
| 20260506164618 | 51 | 207 | 6.0 | 15.0 | 0.00 | 0.00 | 0.00 | 31 | 1013.7 |
| 20260506163107 | 50 | 213 | 8.0 | 14.0 | 0.00 | 0.00 | 0.00 | 37 | 1013.8 |
| 20260506161557 | 48 | 209 | 7.0 | 13.0 | 0.00 | 0.00 | 0.00 | 42 | 1014.0 |
| 20260506160111 | 47 | 180 | 8.0 | 12.0 | 0.00 | 0.00 | 0.00 | 44 | 1014.3 |
| 20260506154555 | 45 | 183 | 6.0 | 12.0 | 0.00 | 0.00 | 0.00 | 49 | 1014.6 |
| 20260506153101 | 43 | 182 | 6.0 | 11.0 | 0.00 | 0.00 | 0.00 | 52 | 1014.9 |
| 20260506151553 | 42 | 196 | 6.0 | 10.0 | 0.00 | 0.00 | 0.00 | 53 | 1015.1 |
| 20260506150053 | 41 | 205 | 4.0 | 8.0 | 0.00 | 0.00 | 0.00 | 56 | 1015.2 |
| 20260506144552 | 39 | 207 | 3.0 | 10.0 | 0.00 | 0.00 | 0.00 | 60 | 1015.2 |
| 20260506143056 | 38 | 352 | 4.0 | 10.0 | 0.00 | 0.00 | 0.00 | 60 | 1015.4 |
| 20260506141609 | 37 | 19 | 2.0 | 7.0 | 0.00 | 0.00 | 0.00 | 61 | 1015.6 |
| 20260506140055 | 35 | 0 | 1.0 | 4.0 | 0.00 | 0.00 | 0.00 | 62 | 1015.6 |
| 20260506134554 | 33 | 360 | 0.0 | 3.0 | 0.00 | 0.00 | 0.00 | 62 | 1015.7 |
| 20260506133105 | 31 | 0 | 0.0 | 0.0 | 0.00 | 0.00 | 0.00 | 62 | 1015.8 |
| 20260506131555 | 27 | 0 | 0.0 | 0.0 | 0.00 | 0.00 | 0.00 | 64 | 1015.9 |
| 20260506130056 | 24 | 0 | 0.0 | 0.0 | 0.00 | 0.00 | 0.00 | 66 | 1015.9 |
| 20260506124550 | 22 | 0 | 0.0 | 1.0 | 0.00 | 0.00 | 0.00 | 68 | 1015.9 |
| 20260506123053 | 20 | 0 | 0.0 | 0.0 | 0.00 | 0.00 | 0.00 | 70 | 1016.0 |
| 20260506121614 | 19 | 360 | 1.0 | 4.0 | 0.00 | 0.00 | 0.00 | 69 | 1016.0 |
| 20260506120120 | 19 | 360 | 3.0 | 4.0 | 0.00 | 0.00 | 0.00 | 69 | 1016.2 |
| 20260506114557 | 19 | 360 | 3.0 | 4.0 | 0.00 | 0.00 | 0.00 | 69 | 1016.2 |
| 20260506113109 | 19 | 0 | 0.0 | 2.0 | 0.00 | 0.00 | 0.00 | 68 | 1016.3 |
| 20260506111552 | 19 | 0 | 0.0 | 4.0 | 0.00 | 0.00 | 0.00 | 68 | 1016.5 |
| 20260506110058 | 18 | 360 | 0.0 | 2.0 | 0.00 | 0.00 | 0.00 | 69 | 1016.8 |
| 20260506104553 | 19 | 0 | 0.0 | 3.0 | 0.00 | 0.00 | 0.00 | 67 | 1017.0 |
| 20260506103056 | 20 | 360 | 3.0 | 5.0 | 0.00 | 0.00 | 0.00 | 66 | 1017.0 |
| 20260506101555 | 19 | 360 | 2.0 | 4.0 | 0.00 | 0.00 | 0.00 | 67 | 1017.1 |
| 20260506100058 | 20 | 360 | 3.0 | 4.0 | 0.00 | 0.00 | 0.00 | 66 | 1017.4 |
| 20260506094557 | 20 | 360 | 2.0 | 4.0 | 0.00 | 0.00 | 0.00 | 66 | 1017.4 |
| 20260506093056 | 20 | 360 | 1.0 | 4.0 | 0.00 | 0.00 | 0.00 | 66 | 1017.6 |
| 20260506091554 | 21 | 360 | 2.0 | 3.0 | 0.00 | 0.00 | 0.00 | 66 | 1017.7 |
| 20260506090052 | 21 | 360 | 0.0 | 2.0 | 0.00 | 0.00 | 0.00 | 66 | 1017.8 |
| 20260506084550 | 22 | 0 | 0.0 | 0.0 | 0.00 | 0.00 | 0.00 | 65 | 1017.9 |
| 20260506083051 | 22 | 0 | 0.0 | 3.0 | 0.00 | 0.00 | 0.00 | 64 | 1018.0 |
| 20260506081553 | 23 | 0 | 0.0 | 0.0 | 0.00 | 0.00 | 0.00 | 64 | 1018.2 |
| 20260506073100 | 24 | 0 | 0.0 | 3.0 | 0.00 | 0.00 | 0.00 | 61 | 1018.5 |
| 20260506071555 | 26 | 0 | 0.0 | 3.0 | 0.00 | 0.00 | 0.00 | 59 | 1018.5 |
| 20260506070114 | 27 | 16 | 2.0 | 4.0 | 0.00 | 0.00 | 0.00 | 59 | 1018.6 |
| 20260506061602 | 28 | 16 | 2.0 | 3.0 | 0.00 | 0.00 | 0.00 | 56 | 1018.5 |
| 20260506044558 | 30 | 16 | 3.0 | 4.0 | 0.00 | 0.00 | 0.00 | 50 | 1018.7 |
| 20260506043051 | 32 | 16 | 1.0 | 3.0 | 0.00 | 0.00 | 0.00 | 49 | 1018.7 |
| 20260506041556 | 30 | 16 | 0.0 | 0.0 | 0.00 | 0.00 | 0.00 | 50 | 1018.8 |
| 20260506040059 | 32 | 0 | 0.0 | 0.0 | 0.00 | 0.00 | 0.00 | 48 | 1018.8 |
| 20260506034555 | 33 | 0 | 1.0 | 4.0 | 0.00 | 0.00 | 0.00 | 47 | 1018.9 |
| 20260506033052 | 34 | 16 | 1.0 | 3.0 | 0.00 | 0.00 | 0.00 | 44 | 1018.8 |
| 20260506031601 | 37 | 16 | 2.0 | 5.0 | 0.00 | 0.00 | 0.00 | 41 | 1018.7 |
| 20260506030105 | 39 | 16 | 4.0 | 8.0 | 0.00 | 0.00 | 0.00 | 40 | 1018.6 |
| 20260506024546 | 41 | 13 | 7.0 | 9.0 | 0.00 | 0.00 | 0.00 | 38 | 1018.5 |
| 20260506023055 | 43 | 5 | 6.0 | 13.0 | 0.00 | 0.00 | 0.00 | 37 | 1018.4 |
| 20260506021551 | 44 | 5 | 10.0 | 15.0 | 0.00 | 0.00 | 0.00 | 36 | 1018.4 |
| 20260506020050 | 45 | 5 | 10.0 | 17.0 | 0.00 | 0.00 | 0.00 | 35 | 1018.3 |
| 20260506014600 | 46 | 14 | 12.0 | 19.0 | 0.00 | 0.00 | 0.00 | 33 | 1018.3 |
| 20260506013051 | 46 | 352 | 13.0 | 18.0 | 0.00 | 0.00 | 0.00 | 33 | 1018.2 |
| 20260506011555 | 47 | 352 | 16.0 | 21.0 | 0.00 | 0.00 | 0.00 | 31 | 1018.1 |